sat.trackr.live / text

‹ back to catalog

ONEWEB-0137

NORAD 47283 · 2020-100AB

PAYLOAD ACTIVE UNKNOWN

§ Identity

Operator
Country
UK
Launch date
2020-12-18
Launch site
VOSTO
Launch vehicle
Mass (kg)
RCS (m²)

Purposes: comms

External: N2YO · Heavens-Above · Gunter

§ Orbital elements

Epoch: 2026-09-09T18:32:21.333696Z

Period
109.72 min
Inclination
87.9008°
Eccentricity
0.0001930
Mean motion
13.12440673 rev/d
Perigee alt
1,212.3 km
Apogee alt
1,215.2 km
Semi-major
7,591.9 km
B*
2.8799e-4
RAAN
333.8713°
Arg perigee
107.4900°
Mean anomaly
252.6440°
Rev number
27,566

§ Raw data

ONEWEB-01371 47283U 20100AB  26252.77246914  .00000116  00000+0  28799-3 0  99992 47283  87.9008 333.8713 0001930 107.4900 252.6440 13.12440673275660

JSON: /api/v1/satellites/47283 · /tle

For live sub-satellite position, see the globe view (requires WebGL).

§ Visibility from observer

Set your observer location to see the next 7 days of passes ≥ 10°. The values pass through the URL so the page stays shareable.

No JS? Fill the form by hand. The geolocation button needs JavaScript.